SB KEPS @ AMSAT $ORB06314.O Orbital Elements 06314.OSCAR
HR AMSAT ORBITAL ELEMENTS FOR OSCAR SATELLITES FROM WA5QGD FORT WORTH,TX November 10, 2006 Send SUBSCRIBE KEPS/UNSUBSCRIBE KEPS to majordomo@amsat.org only BID: ORB06314.O TO ALL RADIO AMATEURS BT
Satellite: AO-07 Catalog number: 07530 Epoch time: 06314.71121499 Element set: 725 Inclination: 101.5501 deg RA of node: 353.8809 deg Eccentricity: 0.0011790 Arg of perigee: 321.3714 deg Mean anomaly: 038.6512 deg Mean motion: 12.53571704 rev/day Decay rate: -2.8e-07 rev/day^2 Epoch rev: 46374 Checksum: 278
Satellite: UO-11 Catalog number: 14781 Epoch time: 06313.59561739 Element set: 0221 Inclination: 098.2037 deg RA of node: 326.8934 deg Eccentricity: 0.0009471 Arg of perigee: 152.3987 deg Mean anomaly: 207.7740 deg Mean motion: 14.79478756 rev/day Decay rate: -1.25e-06 rev/day^2 Epoch rev: 21726 Checksum: 328
Satellite: RS-10/11 Catalog number: 18129 Epoch time: 06313.81108639 Element set: 0150 Inclination: 082.9245 deg RA of node: 220.4248 deg Eccentricity: 0.0013419 Arg of perigee: 050.5878 deg Mean anomaly: 309.6461 deg Mean motion: 13.72780247 rev/day Decay rate: 3.4e-07 rev/day^2 Epoch rev: 97113 Checksum: 291
Satellite: RS-15 Catalog number: 23439 Epoch time: 06314.62350738 Element set: 988 Inclination: 064.8215 deg RA of node: 000.3922 deg Eccentricity: 0.0166042 Arg of perigee: 228.7835 deg Mean anomaly: 129.8674 deg Mean motion: 11.27551768 rev/day Decay rate: -3.9e-07 rev/day^2 Epoch rev: 48905 Checksum: 326
Satellite: FO-29 Catalog number: 24278 Epoch time: 06313.93199272 Element set: 0365 Inclination: 098.5209 deg RA of node: 298.3640 deg Eccentricity: 0.0350099 Arg of perigee: 291.8056 deg Mean anomaly: 064.6184 deg Mean motion: 13.52925310 rev/day Decay rate: 4.0e-08 rev/day^2 Epoch rev: 50525 Checksum: 318
Satellite: SO-33 Catalog number: 25509 Epoch time: 06314.61177424 Element set: 788 Inclination: 031.4361 deg RA of node: 021.4972 deg Eccentricity: 0.0355483 Arg of perigee: 316.5250 deg Mean anomaly: 040.7854 deg Mean motion: 14.28136208 rev/day Decay rate: 4.32e-06 rev/day^2 Epoch rev: 41998 Checksum: 302
Satellite: VO-52 Catalog number: 28650 Epoch time: 06313.63630853 Element set: 0476 Inclination: 097.8574 deg RA of node: 023.9819 deg Eccentricity: 0.0026302 Arg of perigee: 247.4265 deg Mean anomaly: 112.4199 deg Mean motion: 14.81203024 rev/day Decay rate: 4.95e-06 rev/day^2 Epoch rev: 08191 Checksum: 306
/EX SB KEPS @ AMSAT $ORB06314.D Orbital Elements 06314.MICROS
HR AMSAT ORBITAL ELEMENTS FOR THE MICROSATS FROM WA5QGD FORT WORTH,TX November 10, 2006 Send SUBSCRIBE KEPS/UNSUBSCRIBE KEPS to majordomo@amsat.org only BID: ORB06314.D TO ALL RADIO AMATEURS BT
Satellite: AO-16 Catalog number: 20439 Epoch time: 06313.58207724 Element set: 0890 Inclination: 098.1889 deg RA of node: 315.3688 deg Eccentricity: 0.0011673 Arg of perigee: 118.2680 deg Mean anomaly: 241.9687 deg Mean motion: 14.31738808 rev/day Decay rate: 2.2e-07 rev/day^2 Epoch rev: 87712 Checksum: 331
Satellite: LO-19 Catalog number: 20442 Epoch time: 06314.63570453 Element set: 823 Inclination: 098.1838 deg RA of node: 325.8827 deg Eccentricity: 0.0012728 Arg of perigee: 115.2077 deg Mean anomaly: 245.0452 deg Mean motion: 14.31981228 rev/day Decay rate: 4.8e-07 rev/day^2 Epoch rev: 87741 Checksum: 308
Satellite: AO-27 Catalog number: 22825 Epoch time: 06313.85855941 Element set: 540 Inclination: 098.3017 deg RA of node: 288.6702 deg Eccentricity: 0.0008096 Arg of perigee: 185.3617 deg Mean anomaly: 174.7488 deg Mean motion: 14.29189159 rev/day Decay rate: 4.5e-07 rev/day^2 Epoch rev: 68416 Checksum: 343
Satellite: IO-26 Catalog number: 22826 Epoch time: 06313.52352345 Element set: 232 Inclination: 098.2953 deg RA of node: 289.5100 deg Eccentricity: 0.0008579 Arg of perigee: 184.3712 deg Mean anomaly: 175.7393 deg Mean motion: 14.29433739 rev/day Decay rate: 3.4e-07 rev/day^2 Epoch rev: 68419 Checksum: 319
Satellite: PO-28 Catalog number: 22829 Epoch time: 06314.49625117 Element set: 517 Inclination: 098.2860 deg RA of node: 291.6304 deg Eccentricity: 0.0010066 Arg of perigee: 156.3288 deg Mean anomaly: 203.8367 deg Mean motion: 14.30129933 rev/day Decay rate: -5.0e-07 rev/day^2 Epoch rev: 68455 Checksum: 308
Satellite: GO-32 Catalog number: 25397 Epoch time: 06313.65809175 Element set: 0155 Inclination: 098.4483 deg RA of node: 005.0987 deg Eccentricity: 0.0001712 Arg of perigee: 123.3266 deg Mean anomaly: 236.8077 deg Mean motion: 14.23114036 rev/day Decay rate: -2.8e-07 rev/day^2 Epoch rev: 43293 Checksum: 296
Satellite: MO-46 Catalog number: 26548 Epoch time: 06314.57646337 Element set: 643 Inclination: 064.5546 deg RA of node: 138.9350 deg Eccentricity: 0.0038791 Arg of perigee: 226.7313 deg Mean anomaly: 133.0610 deg Mean motion: 14.83044311 rev/day Decay rate: 1.53e-06 rev/day^2 Epoch rev: 33111 Checksum: 285
Satellite: NO-44 Catalog number: 26931 Epoch time: 06313.60298911 Element set: 444 Inclination: 067.0539 deg RA of node: 353.1186 deg Eccentricity: 0.0004989 Arg of perigee: 260.6538 deg Mean anomaly: 099.4000 deg Mean motion: 14.29459906 rev/day Decay rate: 5.0e-07 rev/day^2 Epoch rev: 26671 Checksum: 316
Satellite: SO-50 Catalog number: 27607 Epoch time: 06313.77171251 Element set: 166 Inclination: 064.5597 deg RA of node: 031.1574 deg Eccentricity: 0.0034880 Arg of perigee: 083.7903 deg Mean anomaly: 276.7174 deg Mean motion: 14.71191252 rev/day Decay rate: 8.7e-07 rev/day^2 Epoch rev: 20884 Checksum: 309
Satellite: CO-55 Catalog number: 27844 Epoch time: 06314.60651529 Element set: 890 Inclination: 098.7208 deg RA of node: 320.8957 deg Eccentricity: 0.0010006 Arg of perigee: 006.5670 deg Mean anomaly: 353.5649 deg Mean motion: 14.20468836 rev/day Decay rate: 4.0e-07 rev/day^2 Epoch rev: 17444 Checksum: 311
Satellite: CO-57 Catalog number: 27848 Epoch time: 06314.59963811 Element set: 855 Inclination: 098.7194 deg RA of node: 320.1709 deg Eccentricity: 0.0009968 Arg of perigee: 010.3248 deg Mean anomaly: 349.8076 deg Mean motion: 14.20291992 rev/day Decay rate: -6.38e-06 rev/day^2 Epoch rev: 17442 Checksum: 347
Satellite: AO-51 Catalog number: 28375 Epoch time: 06314.70568912 Element set: 672 Inclination: 098.1453 deg RA of node: 359.9208 deg Eccentricity: 0.0084416 Arg of perigee: 123.6096 deg Mean anomaly: 237.3192 deg Mean motion: 14.40540752 rev/day Decay rate: 3.4e-07 rev/day^2 Epoch rev: 12425 Checksum: 305
Satellite: CO-56 Catalog number: 28941 Epoch time: 06313.87065477 Element set: 0257 Inclination: 098.1605 deg RA of node: 346.7603 deg Eccentricity: 0.0259652 Arg of perigee: 324.5144 deg Mean anomaly: 033.9035 deg Mean motion: 15.30283501 rev/day Decay rate: 2.2644e-04 rev/day^2 Epoch rev: 03978 Checksum: 320
Satellite: HO-59 Catalog number: 29484 Epoch time: 06313.74494538 Element set: 58 Inclination: 098.3174 deg RA of node: 327.8369 deg Eccentricity: 0.0268041 Arg of perigee: 323.2444 deg Mean anomaly: 035.0374 deg Mean motion: 15.34275446 rev/day Decay rate: 4.3139e-04 rev/day^2 Epoch rev: 724 Checksum: 328
/EX SB KEPS @ AMSAT $ORB06314.W Orbital Elements 06314.WEATHER
HR AMSAT ORBITAL ELEMENTS FOR WEATHER SATELLITES FROM WA5QGD FORT WORTH,TX November 10, 2006 Send SUBSCRIBE KEPS/UNSUBSCRIBE KEPS to majordomo@amsat.org only BID: ORB06314.W TO ALL RADIO AMATEURS BT
Satellite: NOAA-10 Catalog number: 16969 Epoch time: 06313.60603821 Element set: 0418 Inclination: 098.7569 deg RA of node: 325.5405 deg Eccentricity: 0.0013181 Arg of perigee: 087.3637 deg Mean anomaly: 272.9032 deg Mean motion: 14.27307910 rev/day Decay rate: -7.7e-07 rev/day^2 Epoch rev: 04790 Checksum: 305
Satellite: NOAA-11 Catalog number: 19531 Epoch time: 06313.33664991 Element set: 0372 Inclination: 098.8232 deg RA of node: 040.1542 deg Eccentricity: 0.0011040 Arg of perigee: 298.5023 deg Mean anomaly: 061.5031 deg Mean motion: 14.14823915 rev/day Decay rate: -1.14e-06 rev/day^2 Epoch rev: 93506 Checksum: 264
Satellite: NOAA-12 Catalog number: 21263 Epoch time: 06313.68051471 Element set: 0866 Inclination: 098.7425 deg RA of node: 306.4357 deg Eccentricity: 0.0013190 Arg of perigee: 028.2066 deg Mean anomaly: 331.9828 deg Mean motion: 14.25513017 rev/day Decay rate: -1.08e-06 rev/day^2 Epoch rev: 80497 Checksum: 294
Satellite: MET-3/5 Catalog number: 21655 Epoch time: 06313.92404440 Element set: 0228 Inclination: 082.5550 deg RA of node: 157.8540 deg Eccentricity: 0.0014236 Arg of perigee: 038.4328 deg Mean anomaly: 321.7806 deg Mean motion: 13.17008254 rev/day Decay rate: 5.1e-07 rev/day^2 Epoch rev: 73254 Checksum: 274
Satellite: MET-2/21 Catalog number: 22782 Epoch time: 06313.74796514 Element set: 0666 Inclination: 082.5502 deg RA of node: 215.9730 deg Eccentricity: 0.0023316 Arg of perigee: 128.8183 deg Mean anomaly: 231.5075 deg Mean motion: 13.83610310 rev/day Decay rate: 8.0e-07 rev/day^2 Epoch rev: 66617 Checksum: 289
Satellite: OKEAN-4 Catalog number: 23317 Epoch time: 06313.74871208 Element set: 100 Inclination: 082.5355 deg RA of node: 141.2495 deg Eccentricity: 0.0020700 Arg of perigee: 255.1615 deg Mean anomaly: 104.7290 deg Mean motion: 14.82418597 rev/day Decay rate: 4.7e-07 rev/day^2 Epoch rev: 65154 Checksum: 274
Satellite: NOAA-14 Catalog number: 23455 Epoch time: 06313.67508596 Element set: 0365 Inclination: 099.0208 deg RA of node: 013.3735 deg Eccentricity: 0.0009213 Arg of perigee: 004.5890 deg Mean anomaly: 355.5378 deg Mean motion: 14.13675372 rev/day Decay rate: -5.8e-07 rev/day^2 Epoch rev: 61162 Checksum: 304
Satellite: SICH-1 Catalog number: 23657 Epoch time: 06313.70664177 Element set: 0904 Inclination: 082.5258 deg RA of node: 282.1757 deg Eccentricity: 0.0022360 Arg of perigee: 243.6816 deg Mean anomaly: 116.2093 deg Mean motion: 14.81410169 rev/day Decay rate: 3.48e-06 rev/day^2 Epoch rev: 60353 Checksum: 292
